Content
SEND FEEDBACK

Daily
Averages
Monthly
Summary
United States of America

PYGA BEACH, GUAM


Home > North America > United States > Guam
Elevation: 6 meters     Latitude: 13 17N     Longitude: 144 39E

WEATHER
 
SELECT A DAY
Number of Records: 341,964;   Date Range: 1/1/95 - 7/26/14
 
SHARE

PRINT THIS DATA

[ ← Previous Day ]
WEATHER ALMANAC - 22 MARCH, 2013
[ Next Day → ]
[ °F ]   °C
Weather ElementAverageHighLow
Temperature26.4 °C29.3 °C (1:55 pm)25 °C (12:57 am)
Dewpoint22.8 °C24 °C (10:41 am)21 °C (3:35 am)
Humidity80.1 %94 % (10:29 pm)70 % (11:34 am)
Barometer1010.8 hPa1012.5 hPa (9:55 pm)1009.1 hPa (3:31 pm)
Wind Speed25.6 km/h31.5 km/h (8:55 am)
Wind Gust38.9 km/h (9:55 am)
Weather ElementAverage
Visibility16.1 km
Wind DirectionNE (47.6 °)

Weather ElementTotal
Precipitation---
Cooling Degree Days8.8 (Base 18.3)
Growing Degree Days17.2 (Base 10)
Averaged from 104 records on 22 March, 2013
WEATHER CONDITIONS BREAKOUT
WIND DIRECTION BREAKOUT
WEATHER BY HOUR - 22 MARCH, 2013
[ °F ]   °C
Local TimeTemperatureDewpointHumidityBarometerVisibilityWind DirectionWind SpeedGust SpeedPrecipitationEventsConditions
12:55 AM25.3 °C21.7 °C80 %1010.8 hPa16.1 kmENE (60°)22.2 km/hMostly Cloudy
12:57 AM25 °C22 °C83 %1010.8 hPa16.1 kmENE (60°)22.2 km/hScattered Clouds
1:55 AM25.2 °C21.1 °C78 %1010.8 hPa16.1 kmNE (50°)22.2 km/hScattered Clouds
2:33 AM25 °C22 °C83 %1010.5 hPa16.1 kmNE (40°)18.5 km/hMostly Cloudy
2:37 AM25 °C22 °C83 %1010.5 hPa16.1 kmNE (40°)22.2 km/hMostly Cloudy
2:38 AM25 °C22 °C83 %1010.5 hPa16.1 kmNE (40°)22.2 km/hMostly Cloudy
2:55 AM25.4 °C21.8 °C80 %1010.2 hPa16.1 kmNE (40°)20.4 km/hMostly Cloudy
2:59 AM25 °C22 °C83 %1010.2 hPa16.1 kmNNE (30°)22.2 km/hMostly Cloudy
3:20 AM25 °C22 °C83 %1010.2 hPa16.1 kmNNE (30°)18.5 km/hMostly Cloudy
3:29 AM25 °C22 °C83 %1010.2 hPa16.1 kmNE (40°)24.1 km/hMostly Cloudy
3:35 AM25 °C21 °C78 %1010.2 hPa16.1 kmNE (40°)24.1 km/hMostly Cloudy
3:36 AM25 °C21 °C78 %1010.2 hPa16.1 kmNE (40°)24.1 km/hMostly Cloudy
3:37 AM25 °C21 °C78 %1010.2 hPa16.1 kmNE (40°)24.1 km/hMostly Cloudy
3:52 AM25 °C21 °C78 %1010.2 hPa16.1 kmNNE (30°)18.5 km/hScattered Clouds
3:55 AM25.2 °C21.3 °C79 %1010.2 hPa16.1 kmNNE (30°)22.2 km/hScattered Clouds
3:58 AM25 °C21 °C78 %1010.2 hPa16.1 kmNE (40°)24.1 km/hMostly Cloudy
4:52 AM25 °C21 °C78 %1010.5 hPa16.1 kmNNE (30°)22.2 km/hScattered Clouds
4:55 AM25.1 °C21.4 °C80 %1010.2 hPa16.1 kmNNE (30°)22.2 km/hScattered Clouds
5:27 AM25 °C21 °C78 %1010.2 hPa16.1 kmNNE (30°)24.1 km/hMostly Cloudy
5:30 AM25 °C21 °C78 %1010.2 hPa16.1 kmNE (40°)22.2 km/hScattered Clouds
5:55 AM25 °C21.6 °C81 %1010.5 hPa16.1 kmNE (40°)24.1 km/hScattered Clouds
6:55 AM25.1 °C22.1 °C83 %1010.8 hPa16.1 kmNE (40°)24.1 km/hPartly Cloudy
7:10 AM25 °C22 °C83 %1011.2 hPa16.1 kmNNE (30°)24.1 km/hMostly Cloudy
7:37 AM26 °C23 °C83 %1011.5 hPa16.1 kmNNE (30°)18.5 km/hScattered Clouds
7:38 AM26 °C23 °C83 %1011.5 hPa16.1 kmNNE (30°)18.5 km/hMostly Cloudy
7:39 AM26 °C23 °C83 %1011.5 hPa16.1 kmNNE (30°)20.4 km/hMostly Cloudy
7:46 AM26 °C22 °C78 %1011.5 hPa16.1 kmNE (40°)25.9 km/hMostly Cloudy
7:55 AM26.3 °C22.6 °C80 %1011.5 hPa16.1 kmNNE (30°)24.1 km/hMostly Cloudy
8:17 AM27 °C23 °C79 %1011.9 hPa16.1 kmNE (40°)24.1 km/hMostly Cloudy
8:23 AM27 °C23 °C79 %1011.9 hPa16.1 kmNE (40°)24.1 km/hMostly Cloudy
8:26 AM27 °C23 °C79 %1011.9 hPa16.1 kmNE (40°)25.9 km/hMostly Cloudy
8:36 AM27 °C22 °C74 %1011.9 hPa16.1 kmNE (40°)29.6 km/hMostly Cloudy
8:45 AM27 °C23 °C79 %1011.9 hPa16.1 kmNE (40°)29.6 km/hMostly Cloudy
8:52 AM27 °C23 °C79 %1011.9 hPa16.1 kmNE (40°)27.8 km/hMostly Cloudy
8:55 AM27.2 °C22.7 °C76 %1011.9 hPa16.1 kmNE (40°)31.5 km/hMostly Cloudy
9:42 AM28 °C23 °C74 %1011.9 hPa16.1 kmNE (40°)31.5 km/hMostly Cloudy
9:55 AM27.9 °C23.2 °C75 %1011.9 hPa16.1 kmNE (40°)27.8 km/h38.9 km/hScattered Clouds
10:41 AM28 °C24 °C79 %1011.9 hPa16.1 kmNE (40°)31.5 km/h38.9 km/hMostly Cloudy
10:49 AM28 °C24 °C79 %1011.9 hPa16.1 kmNE (40°)29.6 km/hScattered Clouds
10:55 AM28.1 °C23.4 °C75 %1011.9 hPa16.1 kmNE (40°)29.6 km/hScattered Clouds
11:34 AM29 °C23 °C70 %1011.2 hPa16.1 kmNE (40°)27.8 km/hMostly Cloudy
11:38 AM29 °C23 °C70 %1011.2 hPa16.1 kmNNE (30°)29.6 km/hMostly Cloudy
11:55 AM28.6 °C23.3 °C73 %1011.2 hPa16.1 kmNE (40°)24.1 km/hOvercast
11:58 AM28 °C23 °C74 %1011.2 hPa16.1 kmNE (40°)27.8 km/hOvercast
12:08 PM28 °C23 °C74 %1011.2 hPa16.1 kmNE (40°)27.8 km/hLight Drizzle
12:28 PM27 °C23 °C79 %1011.2 hPa16.1 kmENE (60°)27.8 km/hLight Drizzle
12:30 PM28 °C23 °C74 %1011.2 hPa16.1 kmNE (50°)31.5 km/hMostly Cloudy
12:55 PM28.9 °C23.6 °C73 %1010.5 hPa16.1 kmENE (60°)27.8 km/h0 mmScattered Clouds
1:01 PM28 °C24 °C79 %1010.2 hPa16.1 kmENE (70°)27.8 km/hMostly Cloudy
1:03 PM28 °C23 °C74 %1010.2 hPa16.1 kmENE (60°)27.8 km/hMostly Cloudy
1:04 PM28 °C23 °C74 %1010.2 hPa16.1 kmENE (70°)29.6 km/hMostly Cloudy
1:07 PM28 °C23 °C74 %1010.2 hPa16.1 kmENE (70°)27.8 km/h37 km/hScattered Clouds
1:54 PM29 °C24 °C74 %1009.8 hPa16.1 kmENE (60°)25.9 km/hMostly Cloudy
1:55 PM29.3 °C23.7 °C72 %1009.8 hPa16.1 kmENE (70°)25.9 km/hMostly Cloudy
2:23 PM29 °C24 °C74 %1009.8 hPa16.1 kmENE (60°)25.9 km/hMostly Cloudy
2:41 PM28 °C23 °C74 %1009.5 hPa16.1 kmENE (60°)29.6 km/hScattered Clouds
2:53 PM28 °C24 °C79 %1009.5 hPa16.1 kmNE (50°)27.8 km/hMostly Cloudy
2:55 PM28.2 °C23.6 °C76 %1009.5 hPa16.1 kmNE (50°)31.5 km/h38.9 km/hMostly Cloudy
3:08 PM28 °C23 °C74 %1009.5 hPa16.1 kmNE (50°)29.6 km/hMostly Cloudy
3:10 PM28 °C23 °C74 %1009.5 hPa16.1 kmENE (60°)29.6 km/hMostly Cloudy
3:31 PM29 °C23 °C70 %1009.1 hPa16.1 kmENE (60°)27.8 km/hScattered Clouds
3:35 PM28 °C23 °C74 %1009.1 hPa16.1 kmENE (60°)29.6 km/hMostly Cloudy
3:39 PM28 °C23 °C74 %1009.1 hPa16.1 kmENE (60°)25.9 km/hScattered Clouds
3:40 PM28 °C23 °C74 %1009.1 hPa16.1 kmNE (50°)25.9 km/hMostly Cloudy
3:48 PM28 °C23 °C74 %1009.1 hPa16.1 kmENE (60°)29.6 km/h38.9 km/hMostly Cloudy
3:55 PM28.4 °C23.2 °C73 %1009.1 hPa16.1 kmNE (50°)31.5 km/h38.9 km/hScattered Clouds
3:58 PM29 °C23 °C70 %1009.1 hPa16.1 kmNE (50°)27.8 km/hMostly Cloudy
4:55 PM27.2 °C22.9 °C77 %1009.5 hPa16.1 kmNE (50°)27.8 km/hMostly Cloudy
5:55 PM26.5 °C22.8 °C80 %1010.2 hPa16.1 kmENE (60°)27.8 km/hOvercast
6:14 PM26 °C23 °C83 %1010.2 hPa16.1 kmENE (60°)25.9 km/hMostly Cloudy
6:24 PM26 °C23 °C83 %1010.5 hPa16.1 kmENE (60°)27.8 km/hMostly Cloudy
6:29 PM26 °C23 °C83 %1010.5 hPa16.1 kmENE (60°)24.1 km/hMostly Cloudy
6:35 PM26 °C23 °C83 %1010.5 hPa16.1 kmNE (50°)27.8 km/hOvercast
6:54 PM26 °C23 °C83 %1010.8 hPa16.1 kmNE (50°)22.2 km/hMostly Cloudy
6:55 PM26.3 °C22.6 °C80 %1010.8 hPa16.1 kmNE (50°)22.2 km/hMostly Cloudy
7:12 PM26 °C23 °C83 %1010.8 hPa16.1 kmNE (40°)22.2 km/hMostly Cloudy
7:13 PM26 °C23 °C83 %1010.8 hPa16.1 kmNE (40°)22.2 km/hMostly Cloudy
7:17 PM26 °C23 °C83 %1010.8 hPa16.1 kmNE (50°)25.9 km/hMostly Cloudy
7:25 PM26 °C23 °C83 %1011.2 hPa16.1 kmENE (60°)27.8 km/hMostly Cloudy
7:55 PM26 °C22.4 °C80 %1011.5 hPa16.1 kmNE (50°)22.2 km/hMostly Cloudy
8:05 PM26 °C23 °C83 %1011.5 hPa16.1 kmNE (50°)25.9 km/hOvercast
8:07 PM26 °C24 °C89 %1011.5 hPa16.1 kmNE (50°)24.1 km/hMostly Cloudy
8:12 PM26 °C24 °C89 %1011.5 hPa16.1 kmNE (50°)20.4 km/hMostly Cloudy
8:52 PM26 °C23 °C83 %1011.9 hPa16.1 kmENE (60°)25.9 km/hMostly Cloudy
8:53 PM26 °C23 °C83 %1011.9 hPa16.1 kmENE (60°)22.2 km/hMostly Cloudy
8:55 PM25.6 °C23 °C85 %1011.9 hPa16.1 kmNE (50°)20.4 km/hMostly Cloudy
9:13 PM26 °C23 °C83 %1012.2 hPa16.1 kmNE (50°)25.9 km/hScattered Clouds
9:18 PM26 °C23 °C83 %1012.2 hPa16.1 kmNE (50°)25.9 km/hMostly Cloudy
9:27 PM26 °C23 °C83 %1012.2 hPa16.1 kmNE (50°)25.9 km/hScattered Clouds
9:55 PM25.6 °C23.1 °C86 %1012.5 hPa16.1 kmNE (50°)25.9 km/hMostly Cloudy
9:57 PM26 °C23 °C83 %1012.5 hPa16.1 kmNE (50°)27.8 km/hMostly Cloudy
10:22 PM26 °C23 °C83 %1012.5 hPa14.5 kmENE (60°)29.6 km/hRainRain
10:29 PM25 °C24 °C94 %1012.5 hPa14.5 kmNE (50°)24.1 km/hRainLight Rain
10:33 PM25 °C24 °C94 %1012.5 hPa16.1 kmNE (50°)20.4 km/hMostly Cloudy
10:38 PM25 °C23 °C89 %1012.5 hPa16.1 kmENE (60°)27.8 km/hOvercast
10:39 PM25 °C23 °C89 %1012.5 hPa16.1 kmENE (60°)27.8 km/hOvercast
10:55 PM25.3 °C23.1 °C88 %1012.5 hPa16.1 kmNE (50°)25.9 km/h0 mmOvercast
11:06 PM25 °C23 °C89 %1012.5 hPa16.1 kmNE (50°)25.9 km/hOvercast
11:16 PM25 °C23 °C89 %1012.5 hPa16.1 kmNE (50°)24.1 km/hMostly Cloudy
11:20 PM25 °C23 °C89 %1012.5 hPa16.1 kmNE (50°)27.8 km/hMostly Cloudy
11:32 PM25 °C23 °C89 %1012.5 hPa16.1 kmENE (60°)29.6 km/hMostly Cloudy
11:33 PM25 °C23 °C89 %1012.2 hPa16.1 kmENE (60°)25.9 km/hMostly Cloudy
11:40 PM25 °C23 °C89 %1012.2 hPa16.1 kmNE (50°)25.9 km/hScattered Clouds
11:55 PM25 °C23 °C89 %1012.2 hPa16.1 kmNE (40°)22.2 km/hPartly Cloudy
Hourly data recorded from PGUA, located 0 kilometers away from Pyga Beach, Guam







STORIES FROM OUR PARTNERS